This is the latest recevied weather packets stored in our database for station/object DG9MHV-10. If no packets are shown the sender has not sent any weather packets the latest 10 day(s).
| Time | Temp. | Humidity | Pressure | Rain* | Wind** | Luminosity | Snow |
|---|---|---|---|---|---|---|---|
| 1777917365 | 20° C | 100% | 1011.8 hPa | - | - | - | - |
| 1777916465 | 20.56° C | 100% | 1011.8 hPa | - | - | - | - |
| 1777915565 | 20.56° C | 100% | 1011.8 hPa | - | - | - | - |
| 1777914665 | 21.11° C | 100% | 1011.9 hPa | - | - | - | - |
| 1777913765 | 21.67° C | 100% | 1011.7 hPa | - | - | - | - |
| 1777912865 | 22.22° C | 100% | 1011.8 hPa | - | - | - | - |
| 1777911963 | 22.78° C | 100% | 1011.7 hPa | - | - | - | - |
| 1777910177 | 22.78° C | 100% | 1011.8 hPa | - | - | - | - |
| 1777909277 | 23.33° C | 100% | 1011.9 hPa | - | - | - | - |
| 1777908376 | 23.89° C | 100% | 1011.9 hPa | - | - | - | - |
| 1777907476 | 23.89° C | 100% | 1012 hPa | - | - | - | - |
| 1777906576 | 25° C | 100% | 1012 hPa | - | - | - | - |
| 1777905676 | 25.56° C | 100% | 1012.1 hPa | - | - | - | - |
| 1777904776 | 25.56° C | 100% | 1012.2 hPa | - | - | - | - |
| 1777903876 | 25° C | 100% | 1012.2 hPa | - | - | - | - |
| 1777902976 | 25.56° C | 100% | 1012.2 hPa | - | - | - | - |
| 1777902075 | 25.56° C | 100% | 1012.6 hPa | - | - | - | - |
| 1777901175 | 25° C | 100% | 1012.7 hPa | - | - | - | - |
| 1777900275 | 25.56° C | 100% | 1012.7 hPa | - | - | - | - |
| 1777899375 | 25.56° C | 100% | 1012.9 hPa | - | - | - | - |
| 1777898475 | 24.44° C | 100% | 1012.9 hPa | - | - | - | - |
| 1777897575 | 24.44° C | 100% | 1013.1 hPa | - | - | - | - |
| 1777896675 | 24.44° C | 100% | 1013 hPa | - | - | - | - |
| 1777895775 | 25° C | 100% | 1013.2 hPa | - | - | - | - |
| 1777894874 | 25° C | 100% | 1013.3 hPa | - | - | - | - |
* Rain since midnight (hover to see other rain measurements)
** Current wind speed in m/s (hover to see current wind gust speed)